2019-07-11 00:09:13 r, 18.33m,0000000005Hz,0000112371c,0000000.244s, 034.1C,00002195
2019-07-11 00:19:13 r, 18.15m,0000000005Hz,0000094922c,0000000.206s, 034.1C,00002195
2019-07-11 00:29:13 r, 18.29m,0000000004Hz,0000107675c,0000000.234s, 034.1C,00002195
2019-07-11 00:39:13 r, 18.53m,0000000004Hz,0000133267c,0000000.289s, 033.8C,00002195
2019-07-11 00:49:13 r, 18.47m,0000000003Hz,0000126628c,0000000.275s, 033.5C,00002195
2019-07-11 00:59:13 r, 18.49m,0000000003Hz,0000128658c,0000000.279s, 033.5C,00002195
2019-07-11 01:09:13 r, 18.41m,0000000004Hz,0000119897c,0000000.260s, 033.5C,00002195
2019-07-11 01:19:13 r, 18.49m,0000000004Hz,0000129252c,0000000.280s, 033.1C,00002195
2019-07-11 01:29:13 r, 18.58m,0000000004Hz,0000140750c,0000000.305s, 033.1C,00002195
2019-07-11 01:39:13 r, 18.54m,0000000003Hz,0000135523c,0000000.294s, 033.1C,00002195
2019-07-11 01:49:13 r, 18.41m,0000000004Hz,0000119110c,0000000.258s, 033.1C,00002195
2019-07-11 01:59:13 r, 18.29m,0000000004Hz,0000107598c,0000000.234s, 032.8C,00002195
2019-07-11 02:09:13 r, 18.59m,0000000003Hz,0000141976c,0000000.308s, 032.8C,00002195
2019-07-11 02:19:13 r, 18.57m,0000000003Hz,0000139251c,0000000.302s, 032.8C,00002195
2019-07-11 02:29:13 r, 18.39m,0000000004Hz,0000117835c,0000000.256s, 032.8C,00002195
2019-07-11 02:39:13 r, 18.27m,0000000005Hz,0000105700c,0000000.229s, 032.5C,00002195
2019-07-11 02:49:13 r, 18.30m,0000000005Hz,0000108360c,0000000.235s, 032.5C,00002195
2019-07-11 02:59:13 r, 18.38m,0000000004Hz,0000116409c,0000000.253s, 032.5C,00002195
2019-07-11 03:09:13 r, 18.66m,0000000003Hz,0000150873c,0000000.327s, 032.5C,00002195
2019-07-11 03:19:13 r, 18.67m,0000000003Hz,0000151560c,0000000.329s, 032.5C,00002195
2019-07-11 03:29:13 r, 18.64m,0000000003Hz,0000147764c,0000000.321s, 032.2C,00002195
2019-07-11 03:39:13 r, 18.61m,0000000004Hz,0000143617c,0000000.312s, 032.2C,00002195
2019-07-11 03:49:13 r, 18.51m,0000000003Hz,0000131483c,0000000.285s, 031.9C,00002195
2019-07-11 03:59:13 r, 18.33m,0000000004Hz,0000111371c,0000000.242s, 031.9C,00002195
2019-07-11 04:09:13 r, 18.01m,0000000006Hz,0000082602c,0000000.179s, 031.9C,00002195
2019-07-11 04:19:13 r, 17.46m,0000000009Hz,0000049906c,0000000.108s, 031.5C,00002195
2019-07-11 04:29:13 r, 16.61m,0000000021Hz,0000022691c,0000000.049s, 031.5C,00002195
2019-07-11 04:39:13 r, 15.28m,0000000069Hz,0000006712c,0000000.015s, 031.5C,00002195
2019-07-11 04:49:13 r, 13.69m,0000000298Hz,0000000000c,0000000.000s, 031.5C,00002195
2019-07-11 04:59:13 r, 12.18m,0000001193Hz,0000000000c,0000000.000s, 031.2C,00002195
2019-07-11 05:09:13 r, 10.77m,0000004362Hz,0000000000c,0000000.000s, 031.2C,00002195
2019-07-11 05:19:13 r, 09.47m,0000014509Hz,0000000000c,0000000.000s, 031.2C,00002195
2019-07-11 05:29:13 r, 08.40m,0000038945Hz,0000000000c,0000000.000s, 031.2C,00002195
2019-07-11 05:39:13 r, 07.55m,0000085105Hz,0000000000c,0000000.000s, 030.9C,00002195
2019-07-11 05:49:13 r, 06.86m,0000161608Hz,0000000000c,0000000.000s, 030.9C,00002195
2019-07-11 05:59:13 r, 06.49m,0000227249Hz,0000000000c,0000000.000s, 030.9C,00002195
2019-07-11 06:09:13 r, 06.13m,0000314429Hz,0000000000c,0000000.000s, 030.9C,00002195
2019-07-11 06:19:13 r, 00.00m,0000411357Hz,0000000000c,0000000.000s, 031.2C,00002195
2019-07-11 06:29:13 r, 00.00m,0000499483Hz,0000000000c,0000000.000s, 031.5C,00002195
2019-07-11 06:39:13 r, 00.00m,0000558048Hz,0000000000c,0000000.000s, 031.5C,00002195
2019-07-11 06:49:13 r, 00.00m,0000564592Hz,0000000000c,0000000.000s, 031.9C,00002195
2019-07-11 06:59:13 r, 00.00m,0000564661Hz,0000000000c,0000000.000s, 032.5C,00002195
2019-07-11 07:09:13 r, 00.00m,0000564682Hz,0000000000c,0000000.000s, 032.8C,00002195
2019-07-11 07:19:13 r, 00.00m,0000564681Hz,0000000000c,0000000.000s, 033.1C,00002195
2019-07-11 07:29:13 r, 00.00m,0000564713Hz,0000000000c,0000000.000s, 033.1C,00002195
2019-07-11 07:39:13 r, 00.00m,0000564789Hz,0000000000c,0000000.000s, 033.5C,00002195
2019-07-11 07:49:13 r, 00.00m,0000564787Hz,0000000000c,0000000.000s, 033.8C,00002195
2019-07-11 07:59:13 r, 00.00m,0000564819Hz,0000000000c,0000000.000s, 034.1C,00002195
2019-07-11 08:09:13 r, 00.00m,0000564842Hz,0000000000c,0000000.000s, 034.4C,00002195
2019-07-11 08:19:13 r, 00.00m,0000565003Hz,0000000000c,0000000.000s, 034.8C,00002195
2019-07-11 08:29:13 r, 00.00m,0000564902Hz,0000000000c,0000000.000s, 035.1C,00002195
2019-07-11 08:39:13 r, 00.00m,0000564965Hz,0000000000c,0000000.000s, 035.4C,00002195
2019-07-11 08:49:13 r, 00.00m,0000564967Hz,0000000000c,0000000.000s, 036.0C,00002195
2019-07-11 08:59:13 r, 00.00m,0000565029Hz,0000000000c,0000000.000s, 036.4C,00002195
2019-07-11 09:09:13 r, 00.00m,0000565061Hz,0000000000c,0000000.000s, 037.0C,00002195
2019-07-11 09:19:13 r, 00.00m,0000565343Hz,0000000000c,0000000.000s, 039.0C,00002195
2019-07-11 09:29:13 r, 00.00m,0000565511Hz,0000000000c,0000000.000s, 040.6C,00002195
2019-07-11 09:39:13 r, 00.00m,0000565708Hz,0000000000c,0000000.000s, 042.8C,00002195
2019-07-11 09:49:13 r, 00.00m,0000565808Hz,0000000000c,0000000.000s, 044.4C,00002195
2019-07-11 09:59:13 r, 00.00m,0000565859Hz,0000000000c,0000000.000s, 045.7C,00002195
2019-07-11 10:09:13 r, 00.00m,0000565939Hz,0000000000c,0000000.000s, 046.0C,00002195
2019-07-11 10:19:13 r, 00.00m,0000565953Hz,0000000000c,0000000.000s, 047.0C,00002195
2019-07-11 10:29:13 r, 00.00m,0000566127Hz,0000000000c,0000000.000s, 048.0C,00002195
2019-07-11 10:39:13 r, 00.00m,0000566107Hz,0000000000c,0000000.000s, 048.6C,00002195
2019-07-11 10:49:13 r, 00.00m,0000566170Hz,0000000000c,0000000.000s, 049.3C,00002195
2019-07-11 10:59:13 r, 00.00m,0000566132Hz,0000000000c,0000000.000s, 050.2C,00002195
2019-07-11 11:09:13 r, 00.00m,0000566212Hz,0000000000c,0000000.000s, 050.9C,00002195
2019-07-11 11:19:13 r, 00.00m,0000566155Hz,0000000000c,0000000.000s, 051.2C,00002195
2019-07-11 11:29:13 r, 00.00m,0000566265Hz,0000000000c,0000000.000s, 051.8C,00002195
2019-07-11 11:39:13 r, 00.00m,0000566185Hz,0000000000c,0000000.000s, 052.5C,00002195
2019-07-11 11:49:13 r, 00.00m,0000566173Hz,0000000000c,0000000.000s, 052.8C,00002195
2019-07-11 11:59:13 r, 00.00m,0000566249Hz,0000000000c,0000000.000s, 053.5C,00002195
2019-07-11 12:09:13 r, 00.00m,0000566272Hz,0000000000c,0000000.000s, 053.5C,00002195
2019-07-11 12:19:13 r, 00.00m,0000566254Hz,0000000000c,0000000.000s, 054.1C,00002195
2019-07-11 12:29:13 r, 00.00m,0000566282Hz,0000000000c,0000000.000s, 054.4C,00002195
2019-07-11 12:39:13 r, 00.00m,0000566318Hz,0000000000c,0000000.000s, 055.1C,00002195
2019-07-11 12:49:13 r, 00.00m,0000566284Hz,0000000000c,0000000.000s, 055.4C,00002195
2019-07-11 12:59:13 r, 00.00m,0000566264Hz,0000000000c,0000000.000s, 055.4C,00002195
2019-07-11 13:09:13 r, 00.00m,0000566286Hz,0000000000c,0000000.000s, 055.4C,00002195
2019-07-11 13:19:13 r, 00.00m,0000566326Hz,0000000000c,0000000.000s, 056.0C,00002195
2019-07-11 13:29:13 r, 00.00m,0000566295Hz,0000000000c,0000000.000s, 056.4C,00002195
2019-07-11 13:39:13 r, 00.00m,0000566281Hz,0000000000c,0000000.000s, 056.4C,00002195
2019-07-11 13:49:13 r, 00.00m,0000566257Hz,0000000000c,0000000.000s, 056.0C,00002195
2019-07-11 13:59:13 r, 00.00m,0000566228Hz,0000000000c,0000000.000s, 056.4C,00002195
2019-07-11 14:09:13 r, 00.00m,0000566312Hz,0000000000c,0000000.000s, 056.7C,00002195
2019-07-11 14:19:13 r, 00.00m,0000566296Hz,0000000000c,0000000.000s, 057.0C,00002195
2019-07-11 14:29:13 r, 00.00m,0000566284Hz,0000000000c,0000000.000s, 057.0C,00002195
2019-07-11 14:39:13 r, 00.00m,0000566055Hz,0000000000c,0000000.000s, 054.7C,00002195
2019-07-11 14:49:13 r, 00.00m,0000566030Hz,0000000000c,0000000.000s, 053.1C,00002195
2019-07-11 14:59:13 r, 00.00m,0000566171Hz,0000000000c,0000000.000s, 054.7C,00002195
2019-07-11 15:09:13 r, 00.00m,0000565997Hz,0000000000c,0000000.000s, 053.8C,00002195
2019-07-11 15:19:13 r, 00.00m,0000566085Hz,0000000000c,0000000.000s, 054.1C,00002195
2019-07-11 15:29:13 r, 00.00m,0000566231Hz,0000000000c,0000000.000s, 055.4C,00002195
2019-07-11 15:39:13 r, 00.00m,0000566204Hz,0000000000c,0000000.000s, 056.0C,00002195
2019-07-11 15:49:13 r, 00.00m,0000566221Hz,0000000000c,0000000.000s, 056.4C,00002195
2019-07-11 15:59:13 r, 00.00m,0000566177Hz,0000000000c,0000000.000s, 056.0C,00002195
2019-07-11 16:09:13 r, 00.00m,0000566027Hz,0000000000c,0000000.000s, 054.1C,00002195
2019-07-11 16:19:13 r, 00.00m,0000566087Hz,0000000000c,0000000.000s, 053.8C,00002195
2019-07-11 16:29:13 r, 00.00m,0000565910Hz,0000000000c,0000000.000s, 052.8C,00002195
2019-07-11 16:39:13 r, 00.00m,0000565726Hz,0000000000c,0000000.000s, 050.6C,00002195
2019-07-11 16:49:13 r, 00.00m,0000566008Hz,0000000000c,0000000.000s, 051.5C,00002195
2019-07-11 16:59:13 r, 00.00m,0000565766Hz,0000000000c,0000000.000s, 050.2C,00002195
2019-07-11 17:09:13 r, 00.00m,0000565715Hz,0000000000c,0000000.000s, 048.9C,00002195
2019-07-11 17:19:13 r, 00.00m,0000565666Hz,0000000000c,0000000.000s, 048.3C,00002195
2019-07-11 17:29:13 r, 00.00m,0000565686Hz,0000000000c,0000000.000s, 048.3C,00002195
2019-07-11 17:39:13 r, 00.00m,0000565903Hz,0000000000c,0000000.000s, 050.2C,00002195
2019-07-11 17:49:13 r, 00.00m,0000565862Hz,0000000000c,0000000.000s, 051.2C,00002195
2019-07-11 17:59:13 r, 00.00m,0000565907Hz,0000000000c,0000000.000s, 050.9C,00002195
2019-07-11 18:09:13 r, 00.00m,0000565881Hz,0000000000c,0000000.000s, 050.9C,00002195
2019-07-11 18:19:13 r, 00.00m,0000565820Hz,0000000000c,0000000.000s, 051.2C,00002195
2019-07-11 18:29:13 r, 00.00m,0000565885Hz,0000000000c,0000000.000s, 050.9C,00002195
2019-07-11 18:39:13 r, 00.00m,0000565758Hz,0000000000c,0000000.000s, 049.6C,00002195
2019-07-11 18:49:13 r, 00.00m,0000565595Hz,0000000000c,0000000.000s, 047.3C,00002195
2019-07-11 18:59:13 r, 00.00m,0000565434Hz,0000000000c,0000000.000s, 046.0C,00002195
2019-07-11 19:09:13 r, 00.00m,0000565384Hz,0000000000c,0000000.000s, 045.1C,00002195
2019-07-11 19:19:13 r, 00.00m,0000565349Hz,0000000000c,0000000.000s, 044.8C,00002195
2019-07-11 19:29:13 r, 00.00m,0000565331Hz,0000000000c,0000000.000s, 043.8C,00002195
2019-07-11 19:39:13 r, 00.00m,0000565298Hz,0000000000c,0000000.000s, 043.5C,00002195
2019-07-11 19:49:13 r, 00.00m,0000565249Hz,0000000000c,0000000.000s, 043.5C,00002195
2019-07-11 19:59:13 r, 00.00m,0000565192Hz,0000000000c,0000000.000s, 043.1C,00002195
2019-07-11 20:09:13 r, 00.00m,0000565199Hz,0000000000c,0000000.000s, 042.8C,00002195
2019-07-11 20:19:13 r, 05.92m,0000379689Hz,0000000000c,0000000.000s, 042.5C,00002195
2019-07-11 20:29:13 r, 00.00m,0000565211Hz,0000000000c,0000000.000s, 042.2C,00002195
2019-07-11 20:39:13 r, 00.00m,0000565223Hz,0000000000c,0000000.000s, 042.5C,00002195
2019-07-11 20:49:13 r, 00.00m,0000565213Hz,0000000000c,0000000.000s, 042.8C,00002195
2019-07-11 20:59:13 r, 00.00m,0000565259Hz,0000000000c,0000000.000s, 042.8C,00002195
2019-07-11 21:09:13 r, 06.22m,0000289852Hz,0000000000c,0000000.000s, 042.5C,00002195
2019-07-11 21:19:13 r, 07.07m,0000132451Hz,0000000000c,0000000.000s, 041.9C,00002195
2019-07-11 21:29:13 r, 07.67m,0000076443Hz,0000000000c,0000000.000s, 041.5C,00002195
2019-07-11 21:39:13 r, 08.48m,0000036211Hz,0000000000c,0000000.000s, 040.9C,00002195
2019-07-11 21:49:13 r, 09.55m,0000013566Hz,0000000000c,0000000.000s, 040.2C,00002195
2019-07-11 21:59:13 r, 10.90m,0000003898Hz,0000000000c,0000000.000s, 039.6C,00002195
2019-07-11 22:09:13 r, 12.36m,0000001014Hz,0000000000c,0000000.000s, 039.3C,00002195
2019-07-11 22:19:13 r, 13.55m,0000000338Hz,0000000000c,0000000.000s, 039.3C,00002195
2019-07-11 22:29:13 r, 15.40m,0000000061Hz,0000007495c,0000000.016s, 039.3C,00002195
2019-07-11 22:39:13 r, 16.37m,0000000025Hz,0000018366c,0000000.040s, 039.3C,00002195
2019-07-11 22:49:13 r, 17.36m,0000000010Hz,0000045979c,0000000.100s, 039.0C,00002195
2019-07-11 22:59:13 r, 17.83m,0000000007Hz,0000070788c,0000000.154s, 038.6C,00002195
2019-07-11 23:09:13 r, 18.06m,0000000005Hz,0000087556c,0000000.190s, 038.6C,00002195
2019-07-11 23:19:13 r, 18.23m,0000000005Hz,0000101747c,0000000.221s, 038.3C,00002195
2019-07-11 23:29:13 r, 18.32m,0000000004Hz,0000110386c,0000000.240s, 038.0C,00002195
2019-07-11 23:39:13 r, 18.37m,0000000004Hz,0000115258c,0000000.250s, 037.7C,00002195
2019-07-11 23:49:13 r, 18.41m,0000000004Hz,0000119257c,0000000.259s, 037.7C,00002195
2019-07-11 23:59:13 r, 18.41m,0000000004Hz,0000119798c,0000000.260s, 037.7C,00002195
